Погода в Важе Эжве

Россия / Республика Коми     61°38′14″N   54°54′43″E
темп.,
°C
ветер,
м/с
пор.,
м/с
влажн.,
%
обл.,
%
осадки,
мм/ч
давл.,
гПа
погр.,
м
7 мая, пт
пт700:000юз118080 0.0 101210
03:00+2ююв2374100 0.0 101277
06:00+3юв378285 0.8 1011215
09:00+10ююз257210 0.8 1010545
12:00+17юз475590 0.1 10091606
15:00+17юз465797 0.9 10101411
18:00+13ююв227593 0.6 101019
21:00+10ю31189100 0.9 1010247
8 мая, сб
сб800:00+9ю3128977 0.0 1010290
03:00+9ююз41385100 0.0 1011555
06:00+7зюз398833 0.6 1015774
09:00+11зюз465712 0.7 10161394
12:00+14з35425 0.0 10181894
15:00+16зюз22375 0.0 10181921
18:00+14ю11495 0.0 101810
21:00+9юв226452 0.0 101915
9 мая, вс
вс900:00+7юв2674100 0.0 101999
03:00+6юв3107685 0.0 1018198
06:00+10юв31065100 0.0 1018321
09:00+15ююв5954100 0.0 1016802
12:00+19ю6104454 0.0 10152203
15:00+19ю51144100 0.0 10142131
18:00+17ююв51351100 0.0 1014648
21:00+15ю51458100 0.0 1014732
10 мая, пн
пн1000:00+14ююз41069100 0.1 1015506
03:00+11з3793100 1.4 1016581
06:00+9з5890100 4.1 10191020
09:00+8з4788100 8.4 1021733
12:00+8зсз4863100 0.4 10231439
15:00+12сз493689 0.5 10232565
18:00+11зсз26465 0.0 1024224
21:00+6з22743 0.0 102512
11 мая, вт
вт1100:00+5зюз23745 0.0 102639
03:00+4ююз278260 0.0 1026125
06:00+8юз3769100 0.0 1026292
09:00+9ююз4976100 0.1 1025889
12:00+7ююз3993100 1.6 1024529
15:00+10юз31293100 2.8 1022749
18:00+11юз31295100 0.8 1021359
21:00+11зюз1194100 1.4 102120